Location: Newark
(11.2914°S, 14.4718°E)
Time: 19:41:42
(UTC+00:00)

SR - All Passes

Search period start: 15 October 2019 00:00
Search period end: 25 October 2019 00:00
Orbit: 575 x 881 km, 66.7° (Epoch: 15 October)

Date Brightness Start Highest point End Pass type
(mag) Time Alt. Az. Time Alt. Az. Time Alt. Az.
15 Oct - 08:08:39 10° NNE 08:12:38 20° ENE 08:16:27 10° ESE daylight
15 Oct - 09:49:33 10° NW 09:54:29 31° WSW 09:59:08 10° S daylight
15 Oct - 20:27:36 10° SSW 20:31:52 77° WNW 20:36:21 10° NNE night (unlit)
16 Oct - 08:59:14 10° NNW 09:04:54 77° WSW 09:10:11 10° SSE daylight
16 Oct - 19:38:25 10° S 19:42:19 34° ESE 19:46:22 10° NE night (unlit)
17 Oct - 08:09:57 10° N 08:15:20 43° ENE 08:20:21 10° SE daylight
17 Oct - 09:54:29 10° W 09:57:12 14° WSW 09:59:52 10° SW daylight
17 Oct - 18:50:56 10° SE 18:52:42 12° ESE 18:54:29 10° E visible
17 Oct - 20:30:49 10° SW 20:34:30 28° WNW 20:38:20 10° NNW night (unlit)
18 Oct - 07:22:01 10° NNE 07:25:44 18° ENE 07:29:19 10° ESE daylight
18 Oct - 09:02:34 10° NW 09:07:35 33° WSW 09:12:18 10° S daylight
18 Oct - 19:40:40 10° SSW 19:44:56 85° WNW 19:49:27 10° NNE visible
19 Oct - 08:12:20 10° NNW 08:18:00 83° WSW 08:23:16 10° SSE daylight
19 Oct - 18:51:34 10° S 18:55:23 31° ESE 18:59:22 10° NE visible
19 Oct - 20:36:09 10° W 20:37:07 11° WNW 20:38:06 10° WNW night (unlit)
20 Oct - 07:23:10 10° N 07:28:26 40° ENE 07:33:21 10° SE daylight
20 Oct - 09:07:17 10° W 09:10:18 15° WSW 09:13:14 10° SSW daylight
20 Oct - 18:04:29 10° SE 18:05:46 11° ESE 18:07:03 10° E visible
20 Oct - 19:43:46 10° SW 19:47:33 30° WNW 19:51:33 10° N visible
21 Oct - 06:35:25 10° NNE 06:38:50 16° ENE 06:42:08 10° ESE daylight
21 Oct - 08:15:35 10° NW 08:20:40 36° WSW 08:25:27 10° S daylight
21 Oct - 18:53:43 10° SSW 18:58:01 87° ESE 19:02:33 10° NNE visible
22 Oct - 07:25:27 10° NNW 07:31:07 89° WSW 07:36:21 10° SSE daylight
22 Oct - 18:04:43 10° S 18:08:28 29° ESE 18:12:21 10° NE visible
22 Oct - 19:48:32 10° W 19:50:12 12° WNW 19:51:54 10° NW visible
23 Oct - 06:36:23 10° N 06:41:32 37° ENE 06:46:20 10° SE daylight
23 Oct - 08:20:06 10° WNW 08:23:23 16° WSW 08:26:33 10° SSW daylight
23 Oct - 17:18:31 10° ESE 17:18:49 10° ESE 17:19:08 10° ESE visible
23 Oct - 18:56:43 10° SW 19:00:38 34° WNW 19:04:46 10° N visible
24 Oct - 05:48:51 10° NE 05:51:56 15° ENE 05:54:55 10° ESE daylight
24 Oct - 07:28:37 10° NW 07:33:46 39° WSW 07:38:36 10° S daylight
24 Oct - 18:06:47 10° SSW 18:11:05 79° ESE 18:15:38 10° NNE visible
